ARIANE 5 DEB, 48422

Orbit data source: Space-Track

ARIANE 5 DEB, 48422 is space debris in HEO originally from a launch on Fri, 05 Oct 2007 UTC launched from the French Guiana (FRGUI). Debris objects in space refer to the collection of defunct objects orbiting the Earth. Examples of debris include non-operational satellites, rocket bodies, and fragments generated from explosions, collisions, or faulty payload assembly.

Loading next visibility...
Identifier
48422, 2007-044E
Orbit
HEO
Last TLE update
15 hours ago
Origin
Manufacturer
Unknown
Mission
Spacecraft
Bus & Motor
Unknown
Mass
Unknown
Launch date (UTC)
2007-10-05 (18 years ago)
Launch vehicle
Unknown
Launch site
French Guiana (FRGUI)
Object type
Payload
Rocket body
Debris
Shape & HBR
Unknown
Radar Cross Section
Medium (>0.1 m² and <1 m²)

Expand to show TLE details & history

TLE from 15 hours ago
0 ARIANE 5 DEB
1 48422U 07044E   25128.61085976  .00000223  00000-0  15096-2 0  9995
2 48422   3.7745 200.0668 7198075  18.3272 357.9642  2.28963407 95652
Epoch: 2025-05-08T14:39Z
Definitive object data (Epoch: 2025-05-08T14:39:38.283Z)
Latitude
0.00001°
Longitude
113.72095°
Altitude
552.613 km
Speed
9.931 km/s
True Right ascension
13h 21m 14s
True Declination
0° 00' 00"
Sunlit
Object was in full shadow at TLE epoch
Visualization TLE readout
Latitude
-0.91403°
Longitude
-52.67737°
Altitude
35,099.563 km
Speed
1.682 km/s
Apparent Right ascension
02h 14m 02s
Apparent Declination
-5° 49' 40"
Sunlit
Object is in daylight
Visualization observer readout
Local Sidereal Time
14:00:23
Azimuth
353.962° N
Elevation
-55.774°
Doppler factor
1
Orbital elements
Apogee altitude
35,449.883 km
Perigee altitude
436.52 km
Semi-major axis
24,321.339 km
Eccentricity
0.7198075
Inclination
3.7745°
RAAN
200.0668°
Arg. of periapsis
18.3272°
True anomaly
342.24051°
Mean anomaly
357.9642°
Eccentric anomaly
352.78326°
Mean motion
0.57222 °/min
BSTAR
0.0015096
Orbital period
629.13 mins
Loading maneuver chart data...
Loading SW <> Apogee altitude chart data...
Loading historical data...
Loading historical data...
Loading historical data...
Loading historical data...
Loading historical data...
Loading historical data...
Loading historical data...
Other satellites on launch #44 in the year 2007 (2007-10-05 UTC)

ARIANE 5 DEB Visibility forecast

Observer location: undefined°, undefined°

Span
Click to sort rows by Start time (UTC) header in descending order
Start Az.
Max El. time (UTC)
Max El. Az.
Max El.
End time (UTC)
End Az.
577 mins2025-05-09 11:58:39.308Z201.072° SSW2025-05-09 18:39:39.308Z163.968° S32.451°2025-05-09 21:35:39.308Z139.614° SSE
|